Regional Weather Roundup
Issued by NWS

Home | Current Version | Previous Version | Text Only | Print | Product List | Glossary Off
Versions: 1 2 3 4 5 6 7 8 9 10 11 12 13 14 15 16 17 18 19 20 21 22 23 24 25 26 27 28 29 30 31 32 33 34 35 36 37 38 39 40 41 42 43 44 45 46 47 48 49 50

746
ASUS45 KBOU 200710
RWRCO

WEATHER ROUNDUP FOR COLORADO
NATIONAL WEATHER SERVICE DENVER/BOULDER CO
1200 AM MST SAT JAN 20 2018

NOTE: "FAIR" INDICATES FEW OR NO CLOUDS BELOW 12000 FEET WITH NO
SIGNIFICANT WEATHER AND/OR OBSTRUCTIONS TO VISIBILITY.

COZ001>005-013-030-031-200800-
...NORTHWEST COLORADO...

CITY           SKY/WX    TMP DP  RH WIND       PRES   REMARKS
CRAIG          FAIR      29  22  75 E3        29.82F
HAYDEN         FAIR     N/A N/A N/A E7        29.84F
MEEKER         MOCLDY    42  24  49 CALM      29.83F
RABBIT EARS PA FAIR      28  18  64 SW9       29.91S WCI  20
STEAMBOAT SPGS FAIR      24  19  81 CALM      29.84S
WALDEN         FAIR      21  14  73 SE8       29.86S WCI  12
$$

COZ006>008-011-200800-
...WEST CENTRAL VALLEYS...

CITY           SKY/WX    TMP DP  RH WIND       PRES   REMARKS
GRAND JUNCTION FAIR      28  20  71 CALM      29.83F
MONTROSE       FAIR      48  20  32 VRB7      29.87F
EAGLE          FAIR      32  21  64 E12       29.88F WCI  23
RIFLE          FAIR      29  23  78 SE5       29.85F WCI  24
DELTA          FAIR      45  24  42 NW8       29.85F
NUCLA          FAIR      48  19  32 SE5       29.92F
$$

COZ017>023-064>068-200800-
...SOUTHWEST COLORADO...

CITY           SKY/WX    TMP DP  RH WIND       PRES   REMARKS
DURANGO        FAIR      25  17  72 N5        29.98F WCI  19
CORTEZ         FAIR      26  19  74 NE5       29.94F WCI  20
PAGOSA SPRINGS FAIR      26  15  64 CALM      30.02F
TELLURIDE      FAIR      40  19  42 SE15      30.01F
WOLF CREEK PAS NOT AVBL
$$

COZ009-010-012-014-032>034-037-058>063-200800-
...CENTRAL COLORADO...

CITY           SKY/WX    TMP DP  RH WIND       PRES   REMARKS
ASPEN          FAIR      32  17  54 SW3       29.89F
BUENA VISTA    FAIR      34  14  43 CALM      29.91F
COPPER MTN     NOT AVBL
BERTHOUD PASS  FAIR      27  14  59 W39G60    29.94F WCI   8
COTTONWOOD PAS   N/A     41  18  38 SW7       29.96F
GUNNISON       FAIR      15  11  83 CALM      29.98S
KREMMLING      FAIR      37  21  52 N6        29.87S
LEADVILLE      FAIR      31  11  43 SE8       29.93F WCI  23
MONARCH PASS   FAIR      25  16  68 SW25G31   30.13F WCI   9
SALIDA         FAIR      46  10  23 S10G21    29.99S
SUNLIGHT       MOCLDY    28  19  69 SW20G29   29.99F WCI  15
WILKERSON PASS FAIR      30  10  43 SW18G29   29.99F WCI  18
$$

COZ069>075-200800-
...SAN LUIS VALLEY/SANGRE DE CRISTO MOUNTAINS...

CITY           SKY/WX    TMP DP  RH WIND       PRES   REMARKS
ALAMOSA        FAIR      25  14  63 S8        29.97F WCI  16
DEL NORTE      FAIR      29  13  52 W3        29.99S
LA VETA PASS   FAIR      32  18  55 S15G28      N/A  WCI  22
SAGUACHE       FAIR      19   9  63 CALM      29.99F
$$

COZ035-036-038>040-200800-
...NORTHERN COLORADO FRONT RANGE...

CITY           SKY/WX    TMP DP  RH WIND       PRES   REMARKS
DENVER INTL AP FAIR      44  14  29 S8        29.74F
DMNS CITY PARK NOT AVBL
AURORA         MOCLDY    44  15  30 SW13      29.75F
FRONT RANGE AP FAIR      44  17  33 SW6       29.75F
ERIE MUNI ARPT FAIR      30  19  62 CALM      29.79S
BOULDER MUN AP FAIR      52  14  22 SW6       29.73F
CENTENNIAL     FAIR      50  16  25 SW14      29.75F
BROOMFIELD     FAIR      50  14  23 CALM      29.74F
FORT COLLINS   FAIR      32  23  69 N8        29.74F WCI  25
LONGMONT       FAIR      38  16  40 NW6       29.75S
$$

COZ041-046-047-076>085-087-088-200800-
...PIKES PEAK/PALMER DIVIDE AND SOUTHERN FOOTHILLS...

CITY           SKY/WX    TMP DP  RH WIND       PRES   REMARKS
COLO. SPRINGS  FAIR      52  14  22 W21G30    29.82F
A. F. ACADEMY  FAIR      34  11  39 N10       29.83S WCI  26
SCHRIEVER AFB  FAIR      52   9  18 NW13      29.82F
CHEYENNE MTN   FAIR      54   9  16 E6G17     29.80F
ELLICOTT         N/A    N/A N/A N/A W9        29.80F
FALCON         FAIR      38  11  32 NW5       29.85F
FORT CARSON    FAIR      55  13  19 W12       29.78F
LIMON          FAIR      27  17  66 NE3       29.75F
MONUMENT HILL  FAIR      36  14  41 CALM      29.85F
CANON CITY     FAIR      46  19  34 W13       29.79F
WALSENBURG     FAIR      52  19  28 W20       29.85F
TRINIDAD       FAIR      49  17  28 W17       29.84F
$$

COZ042>045-048>051-090-091-200800-
...NORTHEAST COLORADO...

CITY           SKY/WX    TMP DP  RH WIND       PRES   REMARKS
GREELEY ARPT   FAIR      25  18  74 W5        29.74F WCI  19
AKRON          FAIR      42  20  41 S14       29.74F
BURLINGTON     FAIR      32  19  58 S7        29.73F WCI  26
WRAY           FAIR      30  25  80 CALM      29.75S
YUMA           FAIR      27  16  63 W7        29.74F WCI  19
STERLING       FAIR      30  23  74 CALM      29.73F
HOLYOKE        FAIR      36  30  80 NE5       29.76S
FORT MORGAN    FAIR      34  18  51 NE12      29.74S WCI  25
$$

COZ086-089-092>099-200800-
...SOUTHEAST COLORADO...

CITY           SKY/WX    TMP DP  RH WIND       PRES   REMARKS
PUEBLO         FAIR      34  17  50 NW8       29.77F WCI  27
LA JUNTA       FAIR      50  20  30 W14       29.74S
LAMAR          FAIR      24  10  55 SW5       29.72F WCI  18
SPRINGFIELD      N/A     38  15  39 W8        29.76S
$$




USA.gov is the U.S. government's official web portal to all federal, state and local government web resources and services.